W4FAA Weather Reports


time (UTC)temp
F
wind
direction
speed
knots
gust
knots
rain 1hr
in
rain 24hr
in
rain mn
in
humidity
%
barometer
mb
20260503053025 70 351 0.0 0.0 0.00 0.00 0.00 95 1014.0
20260503051524 70 352 0.0 0.0 0.00 0.00 0.00 95 1014.4
20260503050014 70 252 0.0 0.0 0.00 0.00 0.00 95 1014.4
20260503044518 70 252 0.0 0.0 0.00 0.00 0.00 95 1014.4
20260503043023 70 352 0.0 0.0 0.00 0.00 0.00 95 1014.4
20260503041528 70 352 0.0 0.0 0.00 0.00 0.00 95 1014.4
20260503040026 70 360 0.0 0.0 0.00 0.00 0.00 95 1014.1
20260503034516 70 360 0.0 0.0 0.00 0.00 0.00 94 1013.7
20260503033026 70 51 0.0 0.0 0.00 0.00 0.00 94 1013.5
20260503031527 70 9 0.0 0.0 0.00 0.00 0.00 94 1013.3
20260503030028 70 9 0.0 0.0 0.00 0.00 0.00 93 1012.9
20260503024511 70 352 0.0 0.0 0.00 0.00 0.00 93 1013.0
20260503023019 70 267 0.0 6.1 0.00 0.00 0.00 93 1013.3
20260503021524 70 234 3.5 6.1 0.00 0.00 0.00 93 1013.3
20260503020024 70 351 3.5 6.1 0.00 0.00 0.00 93 1013.4
20260503014525 70 236 0.9 7.0 0.00 0.00 0.00 93 1012.5
20260503013015 70 248 0.0 0.9 0.00 0.00 0.00 93 1012.0
20260503011520 70 234 4.3 7.0 0.00 0.00 0.00 94 1012.0
20260503010026 70 42 0.9 9.6 0.00 0.00 0.00 94 1012.0
20260503004531 70 173 2.6 7.0 0.00 0.00 0.00 94 1011.6
20260503003046 70 49 0.0 7.8 0.00 0.00 0.00 94 1011.0
20260503001541 71 141 1.7 7.0 0.00 0.00 0.00 94 1011.1
20260503000023 71 136 2.6 4.3 0.00 0.00 0.00 94 1011.3
20260502234533 71 113 0.0 4.3 0.00 0.00 0.00 94 1011.7
20260502233031 71 150 0.9 2.6 0.00 0.00 0.00 93 1011.7
20260502231528 71 130 0.0 0.0 0.00 0.00 0.00 93 1011.7
20260502230031 71 352 0.0 0.0 0.00 0.00 0.00 94 1011.9
20260502224506 70 351 0.0 6.1 0.00 0.00 0.00 94 1011.9
20260502223015 71 254 0.0 0.9 0.00 0.00 0.00 94 1011.5
20260502221514 70 352 0.0 8.7 0.00 0.00 0.00 93 1011.4
20260502220022 71 351 10.4 18.2 0.00 0.00 0.00 90 1012.5
20260502214504 77 351 13.0 22.6 0.00 0.00 0.00 73 1011.7
20260502213006 84 351 5.2 10.4 0.00 0.00 0.00 63 1011.1
20260502211517 84 269 7.0 10.4 0.00 0.00 0.00 60 1010.6
20260502210017 84 340 7.8 12.2 0.00 0.00 0.00 59 1010.4
20260502204523 85 265 7.0 13.0 0.00 0.00 0.00 60 1010.3
20260502203005 86 351 11.3 15.6 0.00 0.00 0.00 58 1010.3
20260502201514 87 351 12.2 18.2 0.00 0.00 0.00 56 1010.3
20260502200016 87 251 13.9 18.2 0.00 0.00 0.00 53 1010.4
20260502194528 88 259 13.9 21.7 0.00 0.00 0.00 55 1010.4
20260502193025 88 267 12.2 18.2 0.00 0.00 0.00 56 1010.2
20260502191507 88 188 11.3 24.3 0.00 0.00 0.00 56 1010.4
20260502190011 88 252 9.6 21.7 0.00 0.00 0.00 57 1010.6
20260502184522 88 261 13.9 26.1 0.00 0.00 0.00 56 1010.7
20260502183023 88 253 16.5 25.2 0.00 0.00 0.00 56 1010.8
20260502181508 88 19 14.8 20.9 0.00 0.00 0.00 57 1011.1
20260502163029 87 264 15.6 27.8 0.00 0.00 0.00 60 1011.5
20260502161524 86 244 12.2 23.5 0.00 0.00 0.00 64 1011.6
20260502151523 84 232 17.4 24.3 0.00 0.00 0.00 68 1011.6
20260502123014 72 17 0.0 2.6 0.00 0.00 0.00 93 1010.7
20260502121519 70 137 0.0 7.0 0.00 0.00 0.00 95 1010.7
20260502114524 66 111 1.7 5.2 0.00 0.00 0.00 96 1010.5
20260502113012 65 150 2.6 6.1 0.00 0.00 0.00 96 1010.4
20260502111516 64 139 3.5 4.3 0.00 0.00 0.00 96 1010.3
20260502110025 64 149 0.0 0.0 0.00 0.00 0.00 96 1010.5
20260502104534 64 133 0.0 0.0 0.00 0.00 0.00 96 1010.5
20260502103028 65 126 0.0 0.0 0.00 0.00 0.00 96 1010.6
20260502101514 65 132 0.0 0.0 0.00 0.00 0.00 96 1010.6
20260502091511 64 140 0.0 0.9 0.00 0.00 0.00 96 1011.0
20260502071527 65 112 0.0 0.0 0.00 0.00 0.00 95 1011.0
20260502070033 66 112 0.0 0.0 0.00 0.00 0.00 95 1011.0
20260502064517 66 112 0.0 0.0 0.00 0.00 0.00 94 1011.0
20260502063027 66 112 0.0 0.0 0.00 0.00 0.00 94 1011.3
20260502061528 67 112 0.0 0.0 0.00 0.00 0.00 94 1011.2
20260502060032 67 112 0.0 0.0 0.00 0.00 0.00 94 1011.4
20260502054532 67 112 0.0 0.0 0.00 0.00 0.00 94 1011.4